TimeEDT,TemperatureF,Dew PointF,Humidity,Sea Level PressureIn,VisibilityMPH,Wind Direction,Wind SpeedMPH,Gust SpeedMPH,PrecipitationIn,Events,Conditions,WindDirDegrees,DateUTC
12:56 AM,70.0,66.0,87,29.91,8.0,SW,4.6,-,0.04,Thunderstorm,Thunderstorm,230,2012-04-04 04:56:00
1:27 AM,69.8,64.4,83,29.91,10.0,WSW,3.5,-,N/A,,Scattered Clouds,250,2012-04-04 05:27:00
1:47 AM,69.8,64.4,83,29.91,10.0,Calm,Calm,-,N/A,Thunderstorm,Thunderstorm,0,2012-04-04 05:47:00
1:56 AM,69.1,64.0,84,29.91,10.0,Calm,Calm,-,N/A,Thunderstorm,Thunderstorm,0,2012-04-04 05:56:00
2:31 AM,68.0,62.6,83,29.90,10.0,Calm,Calm,-,N/A,,Clear,0,2012-04-04 06:31:00
2:56 AM,66.9,63.0,87,29.90,9.0,Calm,Calm,-,N/A,Thunderstorm,Thunderstorm,0,2012-04-04 06:56:00
3:39 AM,68.0,62.6,83,29.90,10.0,North,4.6,-,N/A,,Mostly Cloudy,360,2012-04-04 07:39:00
3:56 AM,66.9,63.0,87,29.90,10.0,NNW,3.5,-,N/A,,Partly Cloudy,330,2012-04-04 07:56:00
4:56 AM,66.0,63.0,90,29.88,9.0,NE,3.5,-,N/A,,Clear,50,2012-04-04 08:56:00
5:56 AM,66.9,64.0,90,29.86,9.0,Calm,Calm,-,N/A,,Clear,0,2012-04-04 09:56:00
6:56 AM,63.0,61.0,93,29.85,3.0,SSW,4.6,-,N/A,Fog,Shallow Fog,200,2012-04-04 10:56:00
7:56 AM,66.9,64.0,90,29.86,4.0,SW,9.2,-,N/A,,Partly Cloudy,230,2012-04-04 11:56:00
8:56 AM,69.1,63.0,81,29.88,10.0,West,5.8,-,N/A,,Partly Cloudy,260,2012-04-04 12:56:00
9:56 AM,72.0,62.1,71,29.86,10.0,WNW,9.2,-,N/A,,Scattered Clouds,290,2012-04-04 13:56:00
10:56 AM,75.0,63.0,66,29.87,10.0,WNW,9.2,-,N/A,,Scattered Clouds,300,2012-04-04 14:56:00
11:56 AM,77.0,63.0,62,29.84,10.0,West,8.1,-,N/A,,Scattered Clouds,280,2012-04-04 15:56:00
12:56 PM,80.1,62.1,54,29.82,10.0,NNW,6.9,-,N/A,,Scattered Clouds,330,2012-04-04 16:56:00
1:56 PM,84.0,63.0,49,29.81,10.0,West,9.2,-,N/A,,Scattered Clouds,280,2012-04-04 17:56:00
2:56 PM,84.9,61.0,44,29.77,10.0,West,9.2,-,N/A,,Partly Cloudy,280,2012-04-04 18:56:00
3:56 PM,84.9,62.1,46,29.74,10.0,WNW,6.9,16.1,N/A,,Clear,290,2012-04-04 19:56:00
4:56 PM,86.0,60.1,41,29.71,10.0,West,9.2,-,N/A,,Partly Cloudy,270,2012-04-04 20:56:00
5:56 PM,84.0,59.0,43,29.71,10.0,West,6.9,-,N/A,,Scattered Clouds,270,2012-04-04 21:56:00
6:56 PM,78.1,66.0,66,29.72,10.0,South,4.6,-,0.00,,Partly Cloudy,180,2012-04-04 22:56:00
7:56 PM,75.0,63.0,66,29.74,10.0,NNE,6.9,-,N/A,,Mostly Cloudy,20,2012-04-04 23:56:00
8:27 PM,75.2,64.4,69,29.74,10.0,SE,3.5,-,N/A,Thunderstorm,Thunderstorm,130,2012-04-05 00:27:00
8:42 PM,73.4,64.4,73,29.75,10.0,Calm,Calm,-,N/A,,Partly Cloudy,0,2012-04-05 00:42:00
8:56 PM,73.0,64.9,76,29.75,10.0,Calm,Calm,-,N/A,,Clear,0,2012-04-05 00:56:00
9:56 PM,72.0,64.9,78,29.76,10.0,Calm,Calm,-,N/A,,Clear,0,2012-04-05 01:56:00
10:56 PM,70.0,64.0,81,29.75,10.0,Calm,Calm,-,N/A,,Partly Cloudy,0,2012-04-05 02:56:00
11:56 PM,68.0,64.0,87,29.75,10.0,SW,4.6,-,N/A,,Clear,230,2012-04-05 03:56:00